| time (UTC) | temp F | wind direction | speed knots | gust knots | rain 1hr in | rain 24hr in | rain mn in | humidity % | barometer mb |
| 20260507113015 | 51 | 0.0 | 2.6 | 0.00 | 0.31 | 0.02 | 71 | 1011.0 | |
| 20260507110019 | 48 | 0.0 | 0.0 | 0.01 | 0.31 | 0.02 | 76 | 1010.7 | |
| 20260507103015 | 47 | 0.0 | 0.0 | 0.01 | 0.31 | 0.02 | 76 | 1010.1 | |
| 20260507100016 | 47 | 0.0 | 0.0 | 0.00 | 0.30 | 0.01 | 76 | 1009.6 | |
| 20260507093038 | 47 | 0.0 | 0.0 | 0.00 | 0.30 | 0.01 | 76 | 1009.4 | |
| 20260507090016 | 48 | 0.0 | 0.0 | 0.00 | 0.30 | 0.01 | 76 | 1009.3 | |
| 20260507083017 | 49 | 0.0 | 0.0 | 0.00 | 0.30 | 0.01 | 76 | 1009.7 | |
| 20260507080017 | 49 | 0.0 | 0.0 | 0.00 | 0.30 | 0.01 | 76 | 1009.8 | |
| 20260507073016 | 50 | 0.0 | 0.0 | 0.00 | 0.30 | 0.01 | 76 | 1009.9 | |
| 20260507070017 | 50 | 0.0 | 0.0 | 0.00 | 0.30 | 0.01 | 74 | 1009.5 | |
| 20260507063017 | 50 | 0.0 | 0.0 | 0.01 | 0.30 | 0.01 | 73 | 1009.2 | |
| 20260507060017 | 50 | 0.0 | 1.7 | 0.01 | 0.30 | 0.01 | 72 | 1008.9 | |
| 20260507053016 | 51 | 0.0 | 0.9 | 0.00 | 0.29 | 0.00 | 71 | 1009.0 | |
| 20260507050016 | 51 | 0.0 | 2.6 | 0.00 | 0.29 | 0.00 | 71 | 1009.0 | |
| 20260507043018 | 51 | 0.0 | 1.7 | 0.00 | 0.29 | 0.00 | 71 | 1009.2 | |
| 20260507040017 | 52 | 0 | 0.9 | 2.6 | 0.00 | 0.29 | 0.29 | 71 | 1009.5 |
| 20260507033018 | 52 | 0.0 | 0.9 | 0.00 | 0.29 | 0.29 | 71 | 1009.1 | |
| 20260507030018 | 52 | 0.0 | 0.9 | 0.00 | 0.29 | 0.29 | 71 | 1009.2 | |
| 20260507023017 | 53 | 0.0 | 0.9 | 0.00 | 0.29 | 0.29 | 71 | 1009.6 | |
| 20260507020017 | 53 | 45 | 0.9 | 2.6 | 0.00 | 0.29 | 0.29 | 71 | 1009.4 |
| 20260507013056 | 55 | 23 | 1.7 | 6.1 | 0.00 | 0.29 | 0.29 | 71 | 1008.8 |
| 20260507010016 | 59 | 23 | 0.9 | 4.3 | 0.00 | 0.29 | 0.29 | 72 | 1007.9 |
| 20260507003016 | 61 | 0.0 | 0.9 | 0.00 | 0.29 | 0.29 | 79 | 1007.0 | |
| 20260507000016 | 61 | 0.0 | 0.9 | 0.00 | 0.29 | 0.29 | 79 | 1006.5 | |
| 20260506233016 | 62 | 0.0 | 1.7 | 0.00 | 0.29 | 0.29 | 79 | 1006.3 | |
| 20260506230017 | 62 | 0.0 | 4.3 | 0.00 | 0.29 | 0.29 | 79 | 1006.1 | |
| 20260506223016 | 62 | 0.0 | 1.7 | 0.00 | 0.29 | 0.29 | 80 | 1005.6 | |
| 20260506220016 | 62 | 0.0 | 2.6 | 0.00 | 0.29 | 0.29 | 80 | 1005.4 | |
| 20260506213016 | 62 | 0.0 | 1.7 | 0.00 | 0.29 | 0.29 | 80 | 1005.4 | |
| 20260506210016 | 62 | 0.0 | 1.7 | 0.04 | 0.29 | 0.29 | 80 | 1005.3 | |
| 20260506203016 | 62 | 0.0 | 3.5 | 0.05 | 0.29 | 0.29 | 79 | 1005.3 | |
| 20260506200016 | 62 | 0.0 | 3.5 | 0.02 | 0.25 | 0.25 | 77 | 1005.7 | |
| 20260506193017 | 62 | 225 | 0.9 | 5.2 | 0.04 | 0.24 | 0.24 | 76 | 1005.8 |
| 20260506190057 | 62 | 225 | 0.9 | 4.3 | 0.05 | 0.23 | 0.23 | 76 | 1006.1 |
| 20260506183016 | 62 | 225 | 0.9 | 3.5 | 0.05 | 0.20 | 0.20 | 73 | 1006.4 |
| 20260506180016 | 63 | 0.0 | 6.1 | 0.05 | 0.18 | 0.18 | 73 | 1006.4 | |
| 20260506173015 | 63 | 0.0 | 1.7 | 0.05 | 0.15 | 0.15 | 72 | 1006.5 | |
| 20260506170016 | 63 | 0.0 | 0.9 | 0.08 | 0.13 | 0.13 | 71 | 1006.6 | |
| 20260506163015 | 63 | 0.0 | 3.5 | 0.09 | 0.10 | 0.10 | 69 | 1007.5 | |
| 20260506160016 | 64 | 0.0 | 2.6 | 0.05 | 0.05 | 0.05 | 68 | 1007.7 | |
| 20260506153038 | 65 | 0.0 | 4.3 | 0.01 | 0.01 | 0.01 | 66 | 1007.8 | |
| 20260506150015 | 66 | 0.0 | 2.6 | 0.00 | 0.00 | 0.00 | 62 | 1007.9 | |
| 20260506143015 | 67 | 225 | 0.9 | 3.5 | 0.00 | 0.00 | 0.00 | 58 | 1008.0 |
| 20260506140019 | 67 | 0.0 | 2.6 | 0.00 | 0.00 | 0.00 | 57 | 1008.3 | |
| 20260506133015 | 68 | 0.0 | 3.5 | 0.00 | 0.00 | 0.00 | 58 | 1008.1 | |
| 20260506130015 | 66 | 203 | 0.9 | 3.5 | 0.00 | 0.00 | 0.00 | 58 | 1007.7 |
| 20260506123017 | 65 | 225 | 0.9 | 6.1 | 0.00 | 0.00 | 0.00 | 60 | 1008.0 |
| 20260506120036 | 65 | 0.0 | 2.6 | 0.00 | 0.00 | 0.00 | 60 | 1008.5 |